Weather History for Pellston, MI

Change the Weather History Date:

Saturday, March 24, 2012

  Actual Average Record
Temperature  
Mean Temperature 48 °F -  
Max Temperature 53 °F 38 °F 66 °F (1987)
Min Temperature 43 °F 17 °F -11 °F (2014)
Degree Days  
Heating Degree Days 17    
Moisture  
Dew Point 35 °F    
Average Humidity 64    
Maximum Humidity 83    
Minimum Humidity 50    
Precipitation  
Precipitation 0.01 in - - ()
Sea Level Pressure  
Sea Level Pressure 29.95 in    
Wind  
Wind Speed 10 mph (East)    
Max Wind Speed 17 mph    
Max Gust Speed 21 mph    
Visibility 10 miles    
Events Rain    
Averages and records for this station are not official NWS values.
T = Trace of Precipitation, MM = Missing Value Source: NWS Daily Summary

Daily Weather History Graph

Daily Weather History Graph

Search for Another Location

Airport:

Trip Planner

Search our weather history database for the weather conditions in past years. The results will help you decide how hot, cold, wet, or windy it might be!

Date:

Astronomy

Mar. 24, 2012 Rise Set
Actual Time 7:33 AM EDT 7:57 PM EDT
Civil Twilight 7:04 AM EDT 8:27 PM EDT
Nautical Twilight 6:29 AM EDT 9:02 PM EDT
Astronomical Twilight 5:52 AM EDT 9:38 PM EDT
Moon 8:04 AM EDT (3/24) 10:26 PM EDT (3/24)
Length of Visible Light 13h 23m
Length of Day
12h 23m
Waxing Crescent, 4% of the Moon is Illuminated
Mar 24
Waxing Crescent
Mar 30
First Quarter
Apr 6
Full
Apr 13
Last Quarter
Apr 21
New

Hourly Weather History & Observations

Time (EDT) Temp. Windchill Dew Point Humidity Pressure Visibility Wind Dir Wind Speed Gust Speed Precip Events Conditions
12:54 AM 46.0 °F 41.4 °F 41.0 °F 83% 30.01 in 10.0 mi ENE 9.2 mph - 0.00 in   Overcast
1:54 AM 46.0 °F 40.2 °F 39.9 °F 79% 29.99 in 10.0 mi East 12.7 mph - 0.01 in Rain Light Rain
2:54 AM 46.9 °F - 37.0 °F 68% 29.98 in 10.0 mi East 17.3 mph 20.7 mph 0.00 in   Overcast
3:54 AM 46.9 °F - 37.0 °F 68% 29.97 in 10.0 mi East 11.5 mph - N/A   Overcast
4:54 AM 46.9 °F - 36.0 °F 66% 29.97 in 10.0 mi East 9.2 mph 17.3 mph N/A   Overcast
5:54 AM 46.0 °F 40.6 °F 35.1 °F 66% 29.96 in 10.0 mi East 11.5 mph 19.6 mph N/A   Overcast
7:54 AM 46.0 °F 40.2 °F 34.0 °F 63% 29.97 in 10.0 mi East 12.7 mph - N/A   Overcast
8:54 AM 46.0 °F 41.0 °F 34.0 °F 63% 29.98 in 10.0 mi East 10.4 mph - N/A   Overcast
9:54 AM 46.0 °F 41.0 °F 34.0 °F 63% 29.98 in 10.0 mi ESE 10.4 mph - 0.00 in Rain Light Rain
10:54 AM 46.0 °F 42.5 °F 35.1 °F 66% 29.97 in 10.0 mi East 6.9 mph - 0.00 in   Overcast
11:54 AM 48.0 °F - 33.1 °F 56% 29.95 in 10.0 mi East 11.5 mph 18.4 mph N/A   Overcast
12:54 PM 50.0 °F - 33.1 °F 52% 29.94 in 10.0 mi East 8.1 mph - N/A   Overcast
1:54 PM 51.1 °F - 34.0 °F 52% 29.94 in 10.0 mi East 9.2 mph - N/A   Overcast
2:54 PM 52.0 °F - 34.0 °F 50% 29.93 in 10.0 mi ESE 8.1 mph - N/A   Mostly Cloudy
3:54 PM 53.1 °F - 35.1 °F 50% 29.93 in 10.0 mi NE 5.8 mph - N/A   Overcast
4:54 PM 50.0 °F - 35.1 °F 57% 29.92 in 10.0 mi NE 9.2 mph - N/A   Overcast
5:54 PM 48.0 °F - 34.0 °F 58% 29.94 in 10.0 mi NE 6.9 mph - N/A   Mostly Cloudy
6:54 PM 46.0 °F 42.5 °F 35.1 °F 66% 29.94 in 10.0 mi NE 6.9 mph - N/A   Overcast
7:54 PM 44.1 °F 40.8 °F 35.1 °F 71% 29.94 in 10.0 mi East 5.8 mph - 0.00 in   Overcast
8:54 PM 44.1 °F 41.5 °F 33.1 °F 65% 29.92 in 10.0 mi ESE 4.6 mph - N/A   Overcast
9:54 PM 44.1 °F - 33.1 °F 65% 29.93 in 10.0 mi Calm Calm - N/A   Mostly Cloudy
10:54 PM 43.0 °F 40.3 °F 35.1 °F 74% 29.94 in 10.0 mi NNW 4.6 mph - N/A   Overcast
11:54 PM 44.1 °F - 35.1 °F 71% 29.95 in 10.0 mi Calm Calm - N/A   Overcast